Radiation Dose at Monitoring Post of Fukushima Daini Nuclear Power Station
Date,Time,MP-1(microSv/h),MP-2(microSv/h),MP-3(microSv/h),MP-4(microSv/h),MP-5(microSv/h),MP-6(microSv/h),MP-7(microSv/h),Wind Direction,Wind Velocity(m/s),Rain
2014/12/23,00:00,0.595,0.381,0.630,0.571,0.567,0.261,0.232,southwest,5.7,No
2014/12/23,00:10,0.592,0.382,0.629,0.572,0.567,0.261,0.231,west-southwest,5.6,No
2014/12/23,00:20,0.592,0.380,0.632,0.571,0.569,0.259,0.232,west,4.0,No
2014/12/23,00:30,0.594,0.381,0.629,0.572,0.567,0.259,0.230,northwest,2.7,No
2014/12/23,00:40,0.593,0.381,0.630,0.571,0.568,0.259,0.230,north-northeast,4.7,No
2014/12/23,00:50,0.592,0.380,0.630,0.571,0.566,0.259,0.231,north,4.8,No
2014/12/23,01:00,0.594,0.381,0.631,0.570,0.568,0.258,0.230,north-northwest,5.4,No
2014/12/23,01:10,0.593,0.380,0.629,0.570,0.567,0.257,0.231,north-northwest,3.9,No
2014/12/23,01:20,0.593,0.382,0.628,0.569,0.566,0.258,0.230,north,5.0,No
2014/12/23,01:30,0.594,0.381,0.629,0.570,0.568,0.259,0.231,north-northwest,3.2,No
2014/12/23,01:40,0.592,0.382,0.629,0.571,0.567,0.259,0.230,north-northwest,2.1,No
2014/12/23,01:50,0.593,0.381,0.627,0.570,0.565,0.258,0.230,north,2.0,No
2014/12/23,02:00,0.593,0.380,0.630,0.572,0.567,0.258,0.231,north,2.8,No
2014/12/23,02:10,0.593,0.382,0.630,0.569,0.566,0.257,0.230,north,3.1,No
2014/12/23,02:20,0.592,0.380,0.629,0.572,0.567,0.259,0.231,north,3.7,No
2014/12/23,02:30,0.592,0.382,0.628,0.572,0.567,0.258,0.230,north-northwest,3.2,No
2014/12/23,02:40,0.593,0.381,0.628,0.571,0.566,0.258,0.229,north,3.9,No
2014/12/23,02:50,0.593,0.380,0.629,0.571,0.565,0.257,0.230,north,4.3,No
2014/12/23,03:00,0.593,0.381,0.629,0.570,0.567,0.259,0.230,north,3.9,No
2014/12/23,03:10,0.592,0.380,0.629,0.571,0.565,0.258,0.230,north,3.5,No
2014/12/23,03:20,0.593,0.379,0.631,0.570,0.566,0.258,0.229,north,4.0,No
2014/12/23,03:30,0.594,0.381,0.628,0.570,0.565,0.257,0.230,north,4.0,No
2014/12/23,03:40,0.590,0.381,0.629,0.570,0.567,0.259,0.229,north,3.5,No
2014/12/23,03:50,0.594,0.381,0.629,0.570,0.567,0.258,0.231,north,4.8,No
2014/12/23,04:00,0.593,0.381,0.628,0.571,0.566,0.257,0.230,north,3.8,No
2014/12/23,04:10,0.593,0.380,0.627,0.568,0.567,0.257,0.229,north,3.2,No
2014/12/23,04:20,0.591,0.378,0.629,0.570,0.566,0.258,0.229,north,3.4,No
2014/12/23,04:30,0.593,0.380,0.629,0.570,0.567,0.258,0.229,north,2.3,No
2014/12/23,04:40,0.591,0.380,0.629,0.571,0.567,0.256,0.230,north-northwest,2.4,No
2014/12/23,04:50,0.592,0.381,0.629,0.571,0.566,0.257,0.230,northwest,2.8,No
2014/12/23,05:00,0.592,0.380,0.628,0.570,0.565,0.258,0.230,northwest,1.5,No
2014/12/23,05:10,0.592,0.379,0.628,0.571,0.564,0.257,0.229,north,0.9,No
2014/12/23,05:20,0.592,0.379,0.627,0.570,0.567,0.258,0.230,south-southeast,0.6,No
2014/12/23,05:30,0.591,0.380,0.627,0.570,0.566,0.258,0.231,north,1.2,No
2014/12/23,05:40,0.591,0.380,0.629,0.570,0.566,0.257,0.231,-,CALM,No
2014/12/23,05:50,0.591,0.379,0.630,0.569,0.566,0.257,0.229,west,0.9,No
2014/12/23,06:00,0.593,0.379,0.629,0.571,0.566,0.258,0.231,west-northwest,1.2,No
2014/12/23,06:10,0.592,0.379,0.628,0.572,0.565,0.258,0.228,-,CALM,No
2014/12/23,06:20,0.592,0.380,0.628,0.571,0.565,0.257,0.229,north,1.3,No
2014/12/23,06:30,0.592,0.379,0.627,0.571,0.566,0.257,0.230,north-northwest,1.1,No
2014/12/23,06:40,0.592,0.379,0.628,0.571,0.565,0.257,0.230,north,1.9,No
2014/12/23,06:50,0.591,0.380,0.628,0.569,0.565,0.257,0.231,north,2.4,No
2014/12/23,07:00,0.591,0.380,0.629,0.571,0.566,0.258,0.230,north-northeast,0.8,No
2014/12/23,07:10,0.590,0.379,0.629,0.568,0.564,0.256,0.229,north-northwest,2.8,No
2014/12/23,07:20,0.591,0.380,0.627,0.570,0.564,0.258,0.229,north,2.5,No
2014/12/23,07:30,0.592,0.380,0.627,0.571,0.567,0.256,0.229,north,3.7,No
2014/12/23,07:40,0.591,0.379,0.627,0.570,0.566,0.256,0.230,north,4.4,No
2014/12/23,07:50,0.593,0.378,0.627,0.571,0.566,0.257,0.231,north,4.3,No
2014/12/23,08:00,0.590,0.380,0.629,0.569,0.565,0.257,0.229,north,6.4,No
2014/12/23,08:10,0.591,0.380,0.629,0.570,0.564,0.259,0.229,north,4.5,No
2014/12/23,08:20,0.592,0.379,0.629,0.570,0.566,0.257,0.230,north,2.1,No
2014/12/23,08:30,0.592,0.380,0.630,0.569,0.566,0.255,0.230,north,2.5,No
2014/12/23,08:40,0.592,0.381,0.628,0.570,0.565,0.257,0.230,north,3.4,No
2014/12/23,08:50,0.592,0.379,0.628,0.571,0.565,0.255,0.230,north,1.5,No
2014/12/23,09:00,0.591,0.381,0.628,0.571,0.567,0.256,0.229,north,1.9,No
2014/12/23,09:10,0.592,0.380,0.629,0.571,0.564,0.256,0.230,north-northeast,1.3,No
2014/12/23,09:20,0.592,0.379,0.630,0.572,0.566,0.257,0.230,south-southwest,0.7,No
2014/12/23,09:30,0.592,0.380,0.629,0.570,0.567,0.257,0.229,northwest,1.4,No
2014/12/23,09:40,0.593,0.380,0.630,0.571,0.567,0.257,0.230,west,1.3,No
2014/12/23,09:50,0.594,0.380,0.630,0.570,0.565,0.257,0.230,north,3.6,No
2014/12/23,10:00,0.592,0.381,0.629,0.571,0.563,0.257,0.228,northwest,1.1,No
2014/12/23,10:10,0.592,0.379,0.630,0.572,0.567,0.257,0.230,north-northwest,1.6,No
2014/12/23,10:20,0.593,0.381,0.630,0.571,0.565,0.257,0.229,north-northwest,4.0,No
2014/12/23,10:30,0.592,0.382,0.630,0.571,0.565,0.258,0.230,north-northwest,3.6,No
2014/12/23,10:40,0.593,0.380,0.627,0.571,0.567,0.258,0.229,north,2.7,No
2014/12/23,10:50,0.592,0.382,0.629,0.572,0.565,0.257,0.229,north-northwest,3.6,No
2014/12/23,11:00,0.594,0.380,0.630,0.572,0.566,0.257,0.230,north-northwest,5.1,No
2014/12/23,11:10,0.593,0.381,0.630,0.571,0.567,0.257,0.230,northwest,3.1,No
2014/12/23,11:20,0.593,0.380,0.630,0.572,0.567,0.258,0.230,northwest,4.9,No
2014/12/23,11:30,0.593,0.381,0.628,0.573,0.565,0.257,0.230,west-southwest,3.2,No
2014/12/23,11:40,0.592,0.381,0.629,0.571,0.566,0.257,0.229,west-southwest,2.0,No
2014/12/23,11:50,0.596,0.380,0.629,0.573,0.566,0.258,0.230,west-southwest,1.5,No
2014/12/23,12:00,0.591,0.381,0.629,0.572,0.566,0.258,0.231,north-northwest,2.3,No
2014/12/23,12:10,0.593,0.380,0.629,0.571,0.566,0.257,0.231,west-northwest,3.4,No
2014/12/23,12:20,0.593,0.382,0.631,0.573,0.566,0.258,0.230,west-northwest,1.5,No
2014/12/23,12:30,0.594,0.381,0.631,0.572,0.567,0.257,0.230,west,1.4,No
2014/12/23,12:40,0.593,0.380,0.630,0.573,0.566,0.257,0.229,west-northwest,1.5,No
2014/12/23,12:50,0.593,0.382,0.631,0.572,0.567,0.257,0.230,north-northwest,1.6,No
2014/12/23,13:00,0.594,0.380,0.630,0.571,0.567,0.257,0.230,west,2.2,No
2014/12/23,13:10,0.594,0.381,0.630,0.574,0.567,0.259,0.229,southwest,2.3,No
2014/12/23,13:20,0.594,0.381,0.630,0.572,0.567,0.258,0.231,south,2.8,No
2014/12/23,13:30,0.593,0.382,0.631,0.573,0.566,0.258,0.231,south-southwest,1.8,No
2014/12/23,13:40,0.593,0.380,0.628,0.572,0.566,0.257,0.231,south,4.4,No
2014/12/23,13:50,0.594,0.380,0.630,0.570,0.568,0.257,0.230,south,3.6,No
2014/12/23,14:00,0.593,0.381,0.631,0.575,0.566,0.257,0.231,south,1.9,No
2014/12/23,14:10,0.594,0.381,0.632,0.571,0.568,0.258,0.231,south,2.1,No
2014/12/23,14:20,0.596,0.380,0.630,0.571,0.567,0.258,0.232,south,2.3,No
2014/12/23,14:30,0.594,0.381,0.630,0.572,0.565,0.257,0.229,south,2.1,No
2014/12/23,14:40,0.594,0.383,0.630,0.573,0.565,0.258,0.231,south,1.8,No
2014/12/23,14:50,0.595,0.382,0.632,0.572,0.566,0.258,0.231,west-southwest,0.6,No
2014/12/23,15:00,0.594,0.380,0.631,0.573,0.568,0.258,0.231,north,2.2,No
2014/12/23,15:10,0.593,0.381,0.631,0.573,0.568,0.257,0.230,west-northwest,1.1,No
2014/12/23,15:20,0.593,0.381,0.631,0.572,0.567,0.259,0.230,south-southwest,2.0,No
2014/12/23,15:30,0.592,0.381,0.629,0.573,0.566,0.257,0.230,north,1.4,No
2014/12/23,15:40,0.594,0.380,0.631,0.572,0.567,0.258,0.231,northwest,1.4,No
2014/12/23,15:50,0.594,0.380,0.630,0.573,0.566,0.258,0.231,north,2.6,No
2014/12/23,16:00,0.593,0.381,0.630,0.572,0.567,0.256,0.230,north,3.6,No
2014/12/23,16:10,0.594,0.381,0.630,0.572,0.565,0.258,0.231,north-northwest,3.4,No
2014/12/23,16:20,0.594,0.381,0.631,0.573,0.565,0.258,0.230,northwest,1.9,No
2014/12/23,16:30,0.595,0.381,0.630,0.572,0.566,0.257,0.230,northwest,0.8,No
2014/12/23,16:40,0.595,0.381,0.631,0.573,0.566,0.258,0.229,-,CALM,No
2014/12/23,16:50,0.593,0.381,0.631,0.572,0.565,0.258,0.231,-,CALM,No
2014/12/23,17:00,0.593,0.379,0.630,0.574,0.566,0.257,0.230,north-northwest,1.3,No
2014/12/23,17:10,0.593,0.381,0.631,0.571,0.568,0.259,0.231,north-northwest,0.9,No
2014/12/23,17:20,0.593,0.381,0.630,0.571,0.567,0.259,0.230,north,1.5,No
2014/12/23,17:30,0.593,0.380,0.629,0.574,0.567,0.258,0.231,north-northwest,1.4,No
2014/12/23,17:40,0.593,0.381,0.629,0.572,0.569,0.258,0.230,northwest,2.8,No
2014/12/23,17:50,0.595,0.381,0.629,0.572,0.566,0.259,0.231,west-southwest,2.5,No
2014/12/23,18:00,0.593,0.382,0.630,0.571,0.566,0.258,0.230,west,2.4,No
2014/12/23,18:10,0.594,0.380,0.630,0.572,0.568,0.258,0.230,west,1.8,No
2014/12/23,18:20,0.593,0.380,0.628,0.571,0.565,0.259,0.231,southwest,3.1,No
2014/12/23,18:30,0.595,0.380,0.631,0.573,0.565,0.258,0.229,-,CALM,No
2014/12/23,18:40,0.595,0.381,0.630,0.571,0.565,0.258,0.231,west-northwest,1.0,No
2014/12/23,18:50,0.592,0.381,0.631,0.573,0.566,0.257,0.230,west,1.5,No
2014/12/23,19:00,0.593,0.380,0.630,0.571,0.565,0.258,0.229,west-northwest,1.2,No
2014/12/23,19:10,0.594,0.380,0.631,0.573,0.567,0.258,0.230,west-northwest,1.9,No
2014/12/23,19:20,0.593,0.381,0.632,0.571,0.566,0.259,0.230,-,CALM,No
2014/12/23,19:30,0.594,0.381,0.630,0.572,0.566,0.259,0.230,south-southwest,1.2,No
2014/12/23,19:40,0.593,0.382,0.631,0.572,0.565,0.259,0.231,southwest,1.7,No
2014/12/23,19:50,0.593,0.380,0.630,0.572,0.566,0.258,0.230,south-southwest,2.5,No
2014/12/23,20:00,0.592,0.382,0.630,0.572,0.566,0.259,0.231,southwest,2.3,No
2014/12/23,20:10,0.593,0.381,0.629,0.570,0.565,0.259,0.231,west-southwest,2.8,No
2014/12/23,20:20,0.595,0.381,0.630,0.571,0.565,0.258,0.231,west-southwest,2.5,No
2014/12/23,20:30,0.593,0.379,0.628,0.573,0.567,0.258,0.230,west,2.2,No
2014/12/23,20:40,0.593,0.381,0.629,0.572,0.567,0.259,0.231,southwest,2.3,No
2014/12/23,20:50,0.593,0.379,0.629,0.571,0.565,0.259,0.230,west-southwest,2.9,No
2014/12/23,21:00,0.592,0.382,0.632,0.573,0.567,0.259,0.231,west-southwest,2.2,No
2014/12/23,21:10,0.593,0.380,0.630,0.571,0.565,0.257,0.231,west-southwest,1.7,No
2014/12/23,21:20,0.594,0.380,0.631,0.573,0.565,0.258,0.231,west-southwest,1.1,No
2014/12/23,21:30,0.594,0.380,0.630,0.571,0.566,0.259,0.230,west,2.1,No
2014/12/23,21:40,0.592,0.381,0.632,0.571,0.566,0.256,0.230,west-southwest,2.4,No
2014/12/23,21:50,0.594,0.379,0.630,0.571,0.566,0.257,0.230,south,1.8,No
2014/12/23,22:00,0.594,0.380,0.630,0.572,0.566,0.258,0.232,south-southwest,3.4,No
2014/12/23,22:10,0.593,0.380,0.631,0.572,0.566,0.257,0.232,south-southwest,2.5,No
2014/12/23,22:20,0.593,0.379,0.629,0.572,0.566,0.259,0.231,southwest,1.9,No
2014/12/23,22:30,0.592,0.381,0.629,0.574,0.566,0.258,0.230,south-southwest,3.0,No
2014/12/23,22:40,0.592,0.380,0.630,0.573,0.565,0.258,0.231,south-southwest,3.8,No
2014/12/23,22:50,0.594,0.379,0.630,0.573,0.565,0.258,0.231,south-southwest,3.9,No
2014/12/23,23:00,0.594,0.381,0.630,0.573,0.566,0.258,0.230,south-southwest,3.6,No
2014/12/23,23:10,0.592,0.381,0.630,0.572,0.565,0.259,0.231,south-southwest,3.2,No
2014/12/23,23:20,0.593,0.380,0.629,0.571,0.565,0.258,0.231,south-southwest,3.2,No
2014/12/23,23:30,0.592,0.381,0.629,0.573,0.565,0.258,0.231,southwest,2.8,No
2014/12/23,23:40,0.593,0.380,0.631,0.571,0.566,0.258,0.231,southwest,2.2,No
2014/12/23,23:50,0.594,0.381,0.631,0.573,0.566,0.258,0.231,southwest,1.8,No
